EW9411 Weather Reports


Display with metric or nautical units.
time (UTC)temp
F
wind
direction
speed
MPH
gust
MPH
rain 1hr
in
rain 24hr
in
rain mn
in
humidity
%
barometer
mb
20260904081420 75 223 1.0 2.0 0.00 0.02 0.00 94 1009.3
20260904081125 75 223 1.0 3.0 0.00 0.02 0.00 93 1009.3
20260904080926 75 223 0.0 3.0 0.00 0.02 0.00 93 1009.2
20260904080625 75 223 2.0 3.0 0.00 0.02 0.00 93 1009.2
20260904080405 75 223 2.0 4.0 0.00 0.02 0.00 93 1009.2
20260904080104 75 223 2.0 5.0 0.00 0.02 0.00 93 1009.1
20260904075911 75 223 1.0 5.0 0.00 0.02 0.00 93 1009.1
20260904075630 75 223 3.0 5.0 0.00 0.02 0.00 94 1009.0
20260904075409 75 229 3.0 6.0 0.00 0.02 0.00 94 1009.1
20260904075106 75 23 1.0 3.0 0.00 0.02 0.00 93 1009.0
20260904074913 75 17 1.0 5.0 0.00 0.03 0.00 93 1009.1
20260904074612 75 17 0.0 5.0 0.00 0.03 0.00 93 1009.0
20260904074434 75 17 2.0 5.0 0.00 0.03 0.00 93 1009.0
20260904074116 75 22 2.0 5.0 0.00 0.03 0.00 93 1009.0
20260904073917 75 336 1.0 3.0 0.00 0.03 0.00 93 1008.9
20260904073616 75 275 0.0 3.0 0.00 0.03 0.00 94 1008.9
20260904073417 75 275 0.0 5.0 0.00 0.03 0.00 94 1008.9
20260904073114 75 356 1.0 5.0 0.00 0.03 0.00 94 1008.9
20260904072921 75 356 1.0 5.0 0.00 0.03 0.00 94 1009.0
20260904072620 75 356 2.0 5.0 0.00 0.03 0.00 94 1009.0
20260904072421 75 351 2.0 4.0 0.00 0.03 0.00 94 1009.0
20260904072119 75 4 1.0 3.0 0.00 0.03 0.00 94 1008.9
20260904071947 75 4 1.0 2.0 0.00 0.03 0.00 93 1008.7
20260904071605 75 4 0.0 1.0 0.00 0.03 0.00 94 1008.7
20260904071405 75 4 0.0 2.0 0.00 0.03 0.00 93 1008.7
20260904071104 75 4 0.0 3.0 0.00 0.03 0.00 93 1008.7
20260904070905 75 4 0.0 4.0 0.00 0.03 0.00 93 1008.7
20260904070609 75 4 1.0 4.0 0.00 0.03 0.00 93 1008.6
20260904070431 75 3 1.0 4.0 0.00 0.03 0.00 93 1008.6
20260904070131 75 3 2.0 4.0 0.00 0.03 0.00 93 1008.6
20260904065935 75 2 2.0 5.0 0.00 0.03 0.00 93 1008.7
20260904065608 75 2 2.0 5.0 0.00 0.03 0.00 93 1008.7
20260904065419 75 2 2.0 5.0 0.00 0.03 0.00 93 1008.8
20260904065113 75 2 2.0 5.0 0.00 0.03 0.00 94 1008.7
20260904064918 75 356 2.0 4.0 0.00 0.06 0.00 93 1008.7
20260904064613 75 356 0.0 5.0 0.00 0.06 0.00 93 1008.7
20260904064417 75 356 1.0 5.0 0.00 0.06 0.00 93 1008.8
20260904064118 75 356 3.0 5.0 0.00 0.06 0.00 93 1008.8
20260904063922 75 189 1.0 3.0 0.00 0.06 0.00 93 1008.9
20260904063637 75 189 1.0 5.0 0.00 0.06 0.00 93 1008.9
20260904063426 75 189 1.0 6.0 0.00 0.06 0.00 94 1009.0
20260904063121 75 189 1.0 7.0 0.00 0.06 0.00 94 1009.1
20260904062906 75 189 2.0 7.0 0.00 0.06 0.00 94 1009.2
20260904062620 75 206 3.0 7.0 0.00 0.06 0.00 94 1009.4
20260904062404 75 188 2.0 7.0 0.00 0.06 0.00 95 1009.5
20260904062144 75 206 3.0 7.0 0.00 0.06 0.00 95 1009.6
20260904061908 75 238 4.0 7.0 0.00 0.06 0.00 95 1009.7
20260904061622 75 202 2.0 7.0 0.00 0.06 0.00 95 1009.8
20260904061406 75 103 3.0 7.0 0.00 0.06 0.00 95 1009.9
20260904061127 75 229 2.0 4.0 0.00 0.06 0.00 96 1010.1
20260904060912 75 254 1.0 3.0 0.00 0.06 0.00 96 1010.1
20260904060606 75 254 2.0 3.0 0.00 0.06 0.00 95 1010.1
20260904060411 75 254 0.0 0.0 0.00 0.06 0.00 95 1010.1
20260904060105 75 254 0.0 0.0 0.00 0.06 0.00 95 1010.0
20260904055910 75 254 0.0 1.0 0.00 0.06 0.00 95 1010.0
20260904055631 75 254 0.0 1.0 0.00 0.06 0.00 95 1009.9
20260904055415 75 254 0.0 1.0 0.00 0.06 0.00 95 1009.8
20260904055109 75 254 0.0 1.0 0.00 0.06 0.00 96 1009.7
20260904054919 75 254 0.0 1.0 0.00 0.10 0.00 96 1009.7
20260904054613 75 254 0.0 1.0 0.00 0.10 0.00 95 1009.6
20260904054417 75 254 0.0 0.0 0.00 0.10 0.00 95 1009.7
20260904054109 75 254 0.0 1.0 0.00 0.10 0.00 95 1009.8
20260904053913 75 254 0.0 1.0 0.00 0.10 0.00 95 1009.9
20260904053607 75 254 0.0 1.0 0.00 0.10 0.00 95 1010.0
20260904053418 75 254 0.0 1.0 0.00 0.10 0.00 95 1010.1
20260904053112 75 254 0.0 0.0 0.00 0.10 0.00 95 1010.1
20260904052917 75 254 0.0 0.0 0.00 0.10 0.00 95 1010.2
20260904052611 75 254 0.0 0.0 0.00 0.10 0.00 95 1010.2
20260904052416 75 254 0.0 1.0 0.00 0.10 0.00 95 1010.3
20260904052117 76 254 0.0 2.0 0.00 0.10 0.00 95 1010.3
20260904051939 76 254 0.0 2.0 0.00 0.10 0.00 95 1010.2
20260904051622 76 254 0.0 2.0 0.00 0.10 0.00 95 1010.2
20260904051408 76 254 1.0 2.0 0.00 0.10 0.00 96 1010.3
20260904051142 76 254 0.0 1.0 0.00 0.10 0.00 95 1010.0
20260904050928 76 254 0.0 1.0 0.00 0.10 0.00 95 1010.0
20260904050627 76 254 0.0 1.0 0.00 0.10 0.00 95 1009.9
20260904050407 76 254 0.0 1.0 0.00 0.10 0.00 95 1009.9
20260904050125 76 254 0.0 1.0 0.00 0.10 0.00 95 1009.9
20260904045910 76 254 0.0 1.0 0.00 0.10 0.00 95 1009.9
20260904045609 76 254 0.0 1.0 0.00 0.10 0.00 95 1009.8
20260904045410 76 254 0.0 1.0 0.00 0.10 0.00 95 1009.8
20260904045108 76 254 0.0 1.0 0.00 0.10 0.00 95 1009.7
20260904044905 76 254 0.0 1.0 0.00 0.27 0.00 95 1009.8
20260904044610 76 254 0.0 1.0 0.00 0.27 0.00 95 1009.9
20260904044411 76 254 1.0 1.0 0.00 0.27 0.00 95 1010.0
20260904044109 76 254 0.0 1.0 0.00 0.27 0.00 95 1010.1
20260904043910 76 254 0.0 1.0 0.00 0.27 0.00 95 1010.2
20260904043608 76 254 0.0 1.0 0.00 0.27 0.00 95 1010.2
20260904043415 76 254 0.0 1.0 0.00 0.27 0.00 95 1010.1
20260904043114 76 254 0.0 1.0 0.00 0.27 0.00 95 1010.0
20260904042913 76 254 0.0 1.0 0.00 0.27 0.00 95 1010.0
20260904042612 76 254 0.0 1.0 0.00 0.27 0.00 95 1010.1
20260904042412 76 254 0.0 1.0 0.00 0.27 0.00 95 1010.1
20260904042116 76 254 0.0 1.0 0.00 0.27 0.00 94 1010.1
20260904041917 76 254 0.0 1.0 0.00 0.27 0.00 94 1010.2
20260904041635 76 254 0.0 1.0 0.00 0.27 0.00 95 1010.3
20260904041421 76 254 0.0 1.0 0.00 0.27 0.00 95 1010.4
20260904041118 76 254 0.0 1.0 0.00 0.27 0.00 94 1010.4
20260904040919 76 254 0.0 1.0 0.00 0.27 0.00 94 1010.4
20260904040616 76 254 0.0 1.0 0.00 0.27 0.00 94 1010.4
20260904040425 76 254 0.0 1.0 0.00 0.27 0.00 94 1010.4
20260904040122 76 254 0.0 1.0 0.00 0.27 0.00 94 1010.4
20260904035942 76 254 0.0 1.0 0.00 0.27 0.00 94 1010.4
20260904035619 76 254 1.0 1.0 0.00 0.27 0.00 94 1010.5
20260904035426 76 254 0.0 1.0 0.00 0.27 0.00 94 1010.6
20260904035125 76 254 0.0 1.0 0.00 0.27 0.00 94 1010.6
20260904034905 76 254 0.0 1.0 0.00 0.27 0.27 94 1010.7
20260904034623 76 254 0.0 1.0 0.00 0.27 0.27 94 1010.7
20260904034404 76 254 0.0 1.0 0.00 0.27 0.27 94 1010.7
20260904034129 77 254 0.0 1.0 0.00 0.27 0.27 94 1010.7
20260904033908 77 254 0.0 1.0 0.00 0.27 0.27 94 1010.6
20260904033607 76 254 0.0 2.0 0.00 0.27 0.27 94 1010.6
20260904033408 76 254 0.0 2.0 0.00 0.27 0.27 94 1010.5
20260904033107 76 254 1.0 2.0 0.00 0.27 0.27 94 1010.4
20260904032913 76 254 0.0 2.0 0.00 0.27 0.27 94 1010.4
20260904032609 77 254 0.0 2.0 0.00 0.27 0.27 94 1010.5
20260904032408 77 254 0.0 2.0 0.00 0.27 0.27 94 1010.4
20260904032106 77 254 1.0 2.0 0.00 0.27 0.27 94 1010.4
20260904031907 77 254 0.0 1.0 0.00 0.27 0.27 94 1010.4
20260904031611 77 254 0.0 0.0 0.00 0.27 0.27 94 1010.4
20260904031413 77 254 0.0 0.0 0.00 0.27 0.27 94 1010.4
20260904031111 76 254 0.0 0.0 0.00 0.27 0.27 94 1010.3
20260904030911 77 254 0.0 0.0 0.00 0.27 0.27 93 1010.1
20260904030609 77 254 0.0 0.0 0.00 0.27 0.27 93 1010.0
20260904030437 77 254 0.0 0.0 0.00 0.27 0.27 93 1010.0
20260904030114 77 254 0.0 0.0 0.00 0.27 0.27 93 1010.1
20260904025914 77 254 0.0 0.0 0.00 0.27 0.27 93 1010.2
20260904025618 77 254 0.0 0.0 0.00 0.27 0.27 92 1010.3
20260904025418 77 254 0.0 0.0 0.00 0.27 0.27 92 1010.3
20260904025116 77 254 0.0 0.0 0.00 0.27 0.27 92 1010.4
20260904024917 77 254 0.0 0.0 0.00 0.27 0.27 92 1010.5
20260904024641 78 254 0.0 0.0 0.00 0.27 0.27 93 1010.6
20260904024420 78 254 0.0 0.0 0.00 0.27 0.27 93 1010.7
20260904024119 77 254 0.0 0.0 0.00 0.27 0.27 93 1010.8
20260904023919 77 254 0.0 0.0 0.00 0.27 0.27 93 1010.7
20260904023625 77 254 0.0 0.0 0.00 0.27 0.27 93 1010.7
20260904023404 77 254 0.0 0.0 0.00 0.27 0.27 93 1010.7
20260904023122 77 254 0.0 0.0 0.00 0.27 0.27 93 1010.7
20260904022924 77 254 0.0 0.0 0.00 0.27 0.27 93 1010.8
20260904022629 77 254 0.0 0.0 0.00 0.27 0.27 93 1010.7
20260904022409 77 254 0.0 0.0 0.00 0.27 0.27 93 1010.7
20260904022107 77 254 0.0 0.0 0.00 0.27 0.27 93 1010.9
20260904021908 77 254 0.0 0.0 0.00 0.27 0.27 92 1011.0
20260904021613 77 254 0.0 0.0 0.00 0.27 0.27 93 1011.2
20260904021413 78 254 0.0 0.0 0.00 0.27 0.27 93 1011.2
20260904021111 78 254 0.0 0.0 0.00 0.27 0.27 92 1011.3
20260904020912 78 254 0.0 0.0 0.00 0.27 0.27 92 1011.3
20260904020634 78 254 0.0 0.0 0.00 0.27 0.27 92 1011.3
20260904020417 78 254 0.0 0.0 0.00 0.27 0.27 92 1011.3
20260904020112 78 254 0.0 1.0 0.00 0.27 0.27 92 1011.3
20260904015915 78 254 0.0 1.0 0.00 0.27 0.27 93 1011.4
20260904015609 78 254 0.0 1.0 0.00 0.27 0.27 92 1011.3
20260904015420 78 254 1.0 1.0 0.00 0.27 0.27 92 1011.4
20260904015136 78 254 0.0 1.0 0.00 0.27 0.27 92 1011.3
20260904014920 78 254 0.0 2.0 0.00 0.27 0.27 92 1011.3
20260904014620 78 254 0.0 2.0 0.00 0.27 0.27 92 1011.3
20260904014425 78 254 0.0 2.0 0.00 0.27 0.27 92 1011.3
20260904014120 78 254 1.0 2.0 0.00 0.27 0.27 92 1011.3
20260904013905 78 254 0.0 0.0 0.00 0.27 0.27 92 1011.4
20260904013619 78 254 0.0 2.0 0.00 0.27 0.27 92 1011.5
20260904013404 78 254 0.0 2.0 0.00 0.27 0.27 92 1011.5
20260904013124 78 254 0.0 2.0 0.00 0.27 0.27 92 1011.5
20260904012909 78 254 1.0 2.0 0.00 0.27 0.27 92 1011.4
20260904012604 78 254 1.0 2.0 0.00 0.27 0.27 92 1011.5
20260904012409 78 254 1.0 2.0 0.00 0.27 0.27 91 1011.5
20260904012122 78 254 1.0 2.0 0.00 0.27 0.27 91 1011.4
20260904011907 78 254 0.0 1.0 0.00 0.27 0.27 91 1011.3
20260904011608 78 254 0.0 1.0 0.00 0.27 0.27 91 1011.3
20260904011412 78 254 0.0 1.0 0.00 0.27 0.27 91 1011.3
20260904011107 78 254 0.0 1.0 0.00 0.27 0.27 91 1011.2
20260904010911 78 254 0.0 1.0 0.00 0.27 0.27 91 1011.3
20260904010605 78 254 0.0 0.0 0.00 0.27 0.27 91 1011.2
20260904010437 78 254 0.0 0.0 0.00 0.27 0.27 91 1011.2
20260904010110 78 254 0.0 1.0 0.00 0.27 0.27 91 1011.1
20260904005922 78 254 0.0 1.0 0.00 0.27 0.27 91 1011.1
20260904005616 78 254 0.0 1.0 0.00 0.27 0.27 91 1011.2
20260904005421 78 254 0.0 1.0 0.00 0.27 0.27 91 1011.2
20260904005115 78 254 0.0 1.0 0.00 0.27 0.27 91 1011.1
20260904004947 78 254 0.0 1.0 0.00 0.27 0.27 91 1011.1
20260904004621 78 254 0.0 1.0 0.00 0.27 0.27 90 1011.0
20260904004406 78 254 0.0 1.0 0.00 0.27 0.27 90 1011.1
20260904004120 79 254 0.0 1.0 0.00 0.27 0.27 90 1011.0
20260904003926 79 254 0.0 1.0 0.00 0.27 0.27 90 1011.0
20260904003606 79 254 0.0 1.0 0.00 0.27 0.27 90 1011.0
20260904003411 79 254 1.0 1.0 0.00 0.27 0.27 90 1011.0
20260904003105 79 254 0.0 1.0 0.00 0.27 0.27 90 1010.9
20260904002937 79 254 0.0 1.0 0.00 0.27 0.27 90 1010.9
20260904002611 79 254 0.0 2.0 0.00 0.27 0.27 90 1010.8
20260904002437 79 254 0.0 2.0 0.00 0.27 0.27 90 1010.8
20260904002118 79 254 0.0 2.0 0.00 0.27 0.27 89 1010.9
20260904001921 79 254 2.0 2.0 0.00 0.27 0.27 89 1011.0
20260904001615 79 254 1.0 2.0 0.00 0.27 0.27 89 1010.9
20260904001420 79 254 0.0 1.0 0.00 0.27 0.27 89 1011.0
20260904001115 79 254 0.0 1.0 0.00 0.27 0.27 89 1011.1
20260904000926 79 254 0.0 1.0 0.00 0.27 0.27 89 1011.0
20260904000621 80 254 0.0 2.0 0.00 0.27 0.27 89 1011.1
20260904000406 80 254 0.0 2.0 0.00 0.27 0.27 89 1011.1
20260904000119 80 254 1.0 2.0 0.00 0.27 0.27 89 1011.0
20260903235930 80 254 1.0 2.0 0.00 0.27 0.27 88 1011.0
20260903235623 80 254 1.0 2.0 0.00 0.27 0.27 87 1010.8
20260903235408 80 254 0.0 1.0 0.00 0.27 0.27 87 1010.7
20260903235123 81 254 0.0 2.0 0.00 0.27 0.27 86 1010.7
20260903234908 81 254 0.0 2.0 0.00 0.27 0.27 86 1010.7
20260903234622 81 254 0.0 2.0 0.00 0.27 0.27 86 1010.5
20260903234434 81 254 0.0 2.0 0.00 0.27 0.27 86 1010.5
20260903234107 81 254 1.0 2.0 0.00 0.27 0.27 85 1010.5
20260903233928 81 254 0.0 2.0 0.00 0.27 0.27 85 1010.5
20260903233632 82 254 0.0 2.0 0.00 0.27 0.27 84 1010.6
20260903233412 82 254 1.0 2.0 0.00 0.27 0.27 84 1010.7
20260903233110 82 254 0.0 2.0 0.00 0.27 0.27 83 1010.7
20260903232917 82 254 1.0 2.0 0.00 0.27 0.27 83 1010.8
20260903232635 82 254 1.0 2.0 0.00 0.27 0.27 82 1010.5
20260903232415 83 254 1.0 2.0 0.00 0.27 0.27 82 1010.5
20260903232114 83 254 1.0 2.0 0.00 0.27 0.27 82 1010.5
20260903231921 83 254 1.0 2.0 0.00 0.27 0.27 82 1010.5
20260903231640 83 254 1.0 2.0 0.00 0.27 0.27 82 1010.5
20260903231427 84 254 1.0 2.0 0.00 0.27 0.27 82 1010.4
20260903231104 84 254 0.0 2.0 0.00 0.27 0.27 81 1010.3
20260903230904 84 254 0.0 2.0 0.00 0.27 0.27 80 1010.4
20260903230628 84 254 1.0 2.0 0.00 0.27 0.27 80 1010.4
20260903230429 84 254 1.0 2.0 0.00 0.27 0.27 80 1010.5
20260903230108 84 254 0.0 2.0 0.00 0.27 0.27 79 1010.5
20260903225908 85 254 0.0 2.0 0.00 0.27 0.27 79 1010.5
20260903225607 85 254 1.0 2.0 0.00 0.27 0.27 79 1010.6
20260903225435 85 254 1.0 2.0 0.00 0.27 0.27 79 1010.6
20260903225112 86 254 1.0 1.0 0.00 0.27 0.27 79 1010.6
20260903224913 86 254 0.0 2.0 0.00 0.27 0.27 79 1010.5
20260903224611 86 254 0.0 2.0 0.00 0.27 0.27 78 1010.6
20260903224438 87 254 1.0 2.0 0.00 0.27 0.27 78 1010.6
20260903224135 87 254 1.0 2.0 0.00 0.27 0.27 75 1010.6
20260903223942 87 254 1.0 2.0 0.00 0.27 0.27 73 1010.5
20260903223618 87 254 1.0 2.0 0.00 0.27 0.27 71 1010.5
20260903223419 88 254 0.0 2.0 0.00 0.27 0.27 71 1010.5
20260903223118 88 254 1.0 3.0 0.00 0.27 0.27 71 1010.7
20260903222925 88 254 1.0 3.0 0.00 0.27 0.27 71 1010.6
20260903222622 88 254 1.0 3.0 0.00 0.27 0.27 72 1010.7
20260903222423 88 254 2.0 3.0 0.00 0.27 0.27 71 1010.7
20260903222122 88 254 2.0 3.0 0.00 0.27 0.27 70 1010.7
20260903221923 88 254 2.0 3.0 0.00 0.27 0.27 71 1010.7
20260903221627 88 254 1.0 3.0 0.00 0.27 0.27 71 1010.7
20260903221408 88 254 2.0 3.0 0.00 0.27 0.27 72 1010.7
20260903221127 88 254 2.0 3.0 0.00 0.27 0.27 72 1010.7
20260903220907 88 254 1.0 3.0 0.00 0.27 0.27 72 1010.7
20260903220612 88 254 1.0 4.0 0.00 0.27 0.27 71 1010.6
20260903220413 88 254 2.0 4.0 0.00 0.27 0.27 71 1010.7
20260903220111 87 254 1.0 4.0 0.00 0.27 0.27 72 1010.8
20260903215912 88 254 3.0 4.0 0.00 0.27 0.27 71 1010.8
20260903215610 88 263 1.0 2.0 0.00 0.27 0.27 70 1010.7
20260903215417 88 263 1.0 2.0 0.00 0.27 0.27 70 1010.6
20260903215114 88 263 1.0 2.0 0.00 0.27 0.27 69 1010.5
20260903214915 88 263 1.0 2.0 0.00 0.27 0.27 70 1010.5
20260903214613 88 263 1.0 2.0 0.00 0.27 0.27 70 1010.4
20260903214414 88 263 1.0 2.0 0.00 0.27 0.27 69 1010.5
20260903214121 88 263 1.0 3.0 0.00 0.27 0.27 70 1010.4
20260903213920 88 263 1.0 3.0 0.00 0.27 0.27 70 1010.4
20260903213616 88 263 1.0 4.0 0.00 0.27 0.27 70 1010.4
20260903213417 88 263 1.0 4.0 0.00 0.27 0.27 70 1010.3
20260903213115 88 258 0.0 4.0 0.00 0.27 0.27 70 1010.4
20260903212924 88 258 2.0 4.0 0.00 0.27 0.27 70 1010.5
20260903212619 88 258 2.0 4.0 0.00 0.27 0.27 71 1010.5
20260903212420 88 258 2.0 4.0 0.00 0.27 0.27 70 1010.5
20260903212117 87 258 2.0 4.0 0.00 0.27 0.27 72 1010.5
20260903211917 87 258 3.0 4.0 0.00 0.27 0.27 70 1010.5
20260903211622 88 260 3.0 4.0 0.00 0.27 0.27 69 1010.5
20260903211423 88 264 2.0 3.0 0.00 0.27 0.27 70 1010.5
20260903211121 88 264 1.0 2.0 0.00 0.27 0.27 70 1010.6
20260903210922 88 264 1.0 2.0 0.00 0.27 0.27 71 1010.6
20260903210619 88 264 1.0 2.0 0.00 0.27 0.27 71 1010.6
20260903210426 88 264 1.0 3.0 0.00 0.27 0.27 70 1010.6
20260903210124 88 264 1.0 3.0 0.00 0.27 0.27 69 1010.6
20260903205905 88 264 2.0 3.0 0.00 0.27 0.27 69 1010.6
20260903205624 89 264 1.0 3.0 0.00 0.27 0.27 70 1010.6
20260903205432 89 264 1.0 2.0 0.00 0.27 0.27 69 1010.6
20260903205126 89 264 1.0 2.0 0.00 0.27 0.27 68 1010.6
20260903204916 89 265 1.0 2.0 0.00 0.27 0.27 69 1010.6
20260903204610 89 265 1.0 3.0 0.00 0.27 0.27 68 1010.5
20260903204436 89 265 1.0 3.0 0.00 0.27 0.27 68 1010.6
20260903204109 89 265 1.0 4.0 0.00 0.27 0.27 67 1010.6
20260903203920 89 265 1.0 4.0 0.00 0.27 0.27 68 1010.5
20260903203615 90 267 1.0 4.0 0.00 0.27 0.27 67 1010.4
20260903203419 90 283 1.0 4.0 0.00 0.27 0.27 67 1010.5
20260903203114 90 8 2.0 4.0 0.00 0.27 0.27 66 1010.6
20260903202919 90 270 1.0 4.0 0.00 0.27 0.27 67 1010.6
20260903202619 90 285 1.0 4.0 0.00 0.27 0.27 67 1010.6
20260903202407 90 290 2.0 4.0 0.00 0.27 0.27 66 1010.6
20260903202120 90 245 2.0 4.0 0.00 0.27 0.27 68 1010.6
20260903201904 90 256 2.0 4.0 0.00 0.27 0.27 69 1010.5
20260903201624 90 257 1.0 4.0 0.00 0.27 0.27 69 1010.5
20260903201429 89 258 1.0 4.0 0.00 0.27 0.27 69 1010.5
20260903201144 89 287 2.0 6.0 0.00 0.27 0.27 67 1010.5
20260903200907 89 248 2.0 6.0 0.00 0.27 0.27 68 1010.6
20260903200626 89 351 3.0 6.0 0.00 0.27 0.27 68 1010.6
20260903200411 89 243 1.0 6.0 0.00 0.27 0.27 69 1010.6
20260903200106 88 243 3.0 6.0 0.00 0.27 0.27 69 1010.6
20260903195930 89 249 3.0 6.0 0.00 0.27 0.27 68 1010.7
20260903195611 88 236 3.0 8.0 0.00 0.27 0.27 70 1010.7
20260903195414 88 245 2.0 8.0 0.00 0.27 0.27 73 1010.7
20260903195109 87 246 2.0 10.0 0.00 0.27 0.27 71 1010.8
20260903194913 87 233 5.0 10.0 0.00 0.39 0.27 70 1010.8
20260903194608 88 245 4.0 10.0 0.00 0.39 0.27 70 1010.9
20260903194419 88 21 2.0 10.0 0.00 0.39 0.27 70 1010.8
20260903194113 87 279 2.0 8.0 0.00 0.39 0.27 72 1010.9
20260903193918 87 248 2.0 8.0 0.00 0.39 0.27 71 1010.9
20260903193632 87 225 4.0 8.0 0.00 0.39 0.27 70 1010.9
20260903193422 88 215 5.0 8.0 0.00 0.39 0.27 69 1010.9
20260903193115 88 270 4.0 8.0 0.00 0.39 0.27 69 1010.9
20260903192920 88 252 4.0 8.0 0.00 0.39 0.27 68 1010.9
20260903192615 88 255 2.0 9.0 0.00 0.39 0.27 70 1010.9
20260903192442 88 243 1.0 9.0 0.00 0.39 0.27 73 1010.8
20260903192119 86 244 1.0 10.0 0.00 0.39 0.27 74 1010.9
20260903191918 86 239 5.0 10.0 0.00 0.39 0.27 72 1010.9
20260903191625 86 245 2.0 10.0 0.00 0.39 0.27 71 1010.9
20260903191425 86 239 5.0 10.0 0.00 0.39 0.27 70 1011.0
20260903191123 87 231 6.0 8.0 0.00 0.39 0.27 71 1011.0
20260903190907 87 189 3.0 7.0 0.00 0.39 0.27 72 1011.0
20260903190622 86 234 4.0 7.0 0.00 0.39 0.27 71 1011.0
20260903190431 86 225 3.0 7.0 0.00 0.39 0.27 71 1011.1
20260903190107 87 220 4.0 9.0 0.00 0.39 0.27 71 1011.1
20260903185907 87 207 3.0 9.0 0.00 0.39 0.27 72 1011.1
20260903185606 86 215 3.0 9.0 0.00 0.39 0.27 74 1011.2
20260903185405 86 248 6.0 9.0 0.00 0.39 0.27 72 1011.2
20260903185112 86 200 5.0 10.0 0.00 0.39 0.27 72 1011.3
20260903184910 86 208 6.0 10.0 0.00 0.52 0.27 71 1011.3
20260903184607 86 225 6.0 10.0 0.00 0.52 0.27 71 1011.4
20260903184407 86 212 4.0 10.0 0.00 0.52 0.27 72 1011.4
20260903184106 86 206 5.0 10.0 0.00 0.52 0.27 71 1011.5
20260903183907 86 224 8.0 10.0 0.00 0.52 0.27 69 1011.5
20260903183611 87 239 2.0 11.0 0.00 0.52 0.27 70 1011.5
20260903183412 87 237 2.0 11.0 0.00 0.52 0.27 70 1011.4
20260903183110 87 232 3.0 11.0 0.00 0.52 0.27 69 1011.5
20260903182938 87 223 6.0 11.0 0.00 0.52 0.27 70 1011.5
20260903182615 87 250 1.0 8.0 0.00 0.52 0.27 72 1011.5
20260903182416 87 250 1.0 8.0 0.00 0.52 0.27 71 1011.5
20260903182141 86 245 2.0 8.0 0.00 0.52 0.27 71 1011.5
20260903181919 86 245 3.0 8.0 0.00 0.52 0.27 72 1011.6
20260903181618 87 244 4.0 8.0 0.00 0.52 0.27 70 1011.6
20260903181446 87 252 4.0 8.0 0.00 0.52 0.27 70 1011.5
20260903181123 87 238 3.0 8.0 0.00 0.52 0.27 70 1011.6
20260903180904 86 337 2.0 11.0 0.00 0.52 0.27 71 1011.6
20260903180621 86 248 4.0 11.0 0.00 0.52 0.27 70 1011.7
20260903180421 86 241 4.0 11.0 0.00 0.52 0.27 71 1011.6
20260903180126 87 235 3.0 8.0 0.00 0.52 0.27 69 1011.6
20260903175908 87 244 2.0 5.0 0.00 0.52 0.27 69 1011.6
20260903175604 87 254 2.0 5.0 0.00 0.52 0.27 70 1011.6
20260903175405 87 6 2.0 5.0 0.00 0.52 0.27 68 1011.6
20260903175133 87 351 2.0 5.0 0.00 0.52 0.27 68 1011.6
20260903174931 87 237 2.0 5.0 0.00 0.52 0.27 71 1011.6
20260903174606 86 260 1.0 4.0 0.00 0.52 0.27 72 1011.5
20260903174433 86 229 1.0 7.0 0.00 0.52 0.27 75 1011.7
20260903174132 85 229 1.0 8.0 0.00 0.52 0.27 73 1011.7
20260903173918 85 243 2.0 8.0 0.00 0.52 0.27 73 1011.8
20260903173616 85 224 3.0 8.0 0.00 0.52 0.27 74 1011.8
20260903173417 85 243 4.0 8.0 0.00 0.52 0.27 73 1011.9
20260903173116 84 245 4.0 10.0 0.00 0.52 0.27 76 1012.0
20260903172917 84 234 2.0 10.0 0.00 0.52 0.27 76 1012.0
20260903172620 83 191 5.0 10.0 0.00 0.52 0.27 74 1012.1
20260903172442 84 226 6.0 10.0 0.00 0.52 0.27 74 1012.0
20260903172142 84 195 2.0 6.0 0.00 0.52 0.27 74 1012.1
20260903171925 84 327 2.0 5.0 0.00 0.52 0.27 76 1012.1
20260903171625 83 227 1.0 6.0 0.00 0.52 0.27 77 1012.2
20260903171430 83 227 2.0 6.0 0.00 0.52 0.27 77 1012.3
20260903171143 83 225 4.0 6.0 0.00 0.52 0.27 76 1012.4
20260903170906 83 243 4.0 7.0 0.00 0.52 0.27 76 1012.5
20260903170625 82 144 2.0 7.0 0.00 0.52 0.27 78 1012.4
20260903170409 82 233 2.0 7.0 0.00 0.52 0.27 79 1012.5
20260903170104 82 198 4.0 7.0 0.00 0.52 0.27 79 1012.6
20260903165909 82 237 3.0 8.0 0.00 0.52 0.27 77 1012.5
20260903165623 82 250 4.0 8.0 0.00 0.52 0.27 79 1012.5
20260903165408 82 227 3.0 7.0 0.00 0.52 0.27 77 1012.5
20260903165129 81 237 5.0 8.0 0.00 0.52 0.27 78 1012.6
20260903164913 81 225 4.0 7.0 0.00 0.52 0.27 79 1012.5
20260903164605 81 214 2.0 7.0 0.00 0.52 0.27 79 1012.6
20260903164416 81 212 3.0 7.0 0.00 0.52 0.27 78 1012.6
20260903164110 81 258 4.0 6.0 0.00 0.52 0.27 77 1012.7
20260903163935 82 261 4.0 9.0 0.00 0.52 0.27 78 1012.7
20260903163608 82 220 3.0 9.0 0.00 0.52 0.27 78 1012.7
20260903163419 82 198 3.0 9.0 0.00 0.52 0.27 78 1012.8
20260903163114 82 250 3.0 9.0 0.00 0.52 0.27 78 1012.8
20260903162919 81 13 2.0 8.0 0.00 0.52 0.27 77 1012.7
20260903162613 82 227 2.0 6.0 0.00 0.52 0.27 78 1012.8
20260903162418 81 9 1.0 6.0 0.00 0.52 0.27 77 1012.7
20260903162117 81 15 3.0 6.0 0.00 0.52 0.27 79 1012.7
20260903161922 81 260 1.0 7.0 0.00 0.52 0.27 80 1012.8
20260903161644 81 249 2.0 7.0 0.00 0.52 0.27 78 1012.7
20260903161427 81 249 4.0 9.0 0.00 0.52 0.27 78 1012.8
20260903161120 80 337 1.0 9.0 0.00 0.52 0.27 80 1012.8
20260903160948 80 335 2.0 9.0 0.00 0.52 0.27 80 1012.9
20260903160625 79 263 4.0 15.0 0.00 0.52 0.27 78 1012.8
20260903160405 80 248 4.0 15.0 0.00 0.52 0.27 78 1012.9
20260903160123 80 262 4.0 15.0 0.00 0.52 0.27 79 1012.9
20260903155904 80 243 6.0 15.0 0.00 0.52 0.27 79 1013.0
20260903155611 80 252 1.0 8.0 0.00 0.52 0.27 81 1013.0
20260903155411 80 252 4.0 8.0 0.00 0.52 0.27 78 1013.0
20260903155109 80 249 2.0 3.0 0.00 0.52 0.27 80 1012.9
20260903154909 80 324 0.0 8.0 0.00 0.52 0.27 81 1013.0
20260903154605 79 324 1.0 9.0 0.00 0.52 0.27 83 1013.1
20260903154406 78 324 1.0 9.0 0.00 0.52 0.27 83 1013.2
20260903154110 78 236 6.0 9.0 0.00 0.52 0.27 81 1013.5
20260903153911 78 257 4.0 9.0 0.00 0.52 0.27 81 1013.5
20260903153610 79 246 2.0 9.0 0.00 0.52 0.27 83 1013.5
20260903153409 78 245 2.0 9.0 0.00 0.52 0.27 82 1013.5
20260903153108 78 252 4.0 10.0 0.00 0.52 0.27 83 1013.6
20260903152915 78 252 3.0 10.0 0.00 0.52 0.27 84 1013.7
20260903152634 78 242 4.0 10.0 0.00 0.52 0.27 85 1013.7
20260903152413 78 214 4.0 10.0 0.00 0.52 0.27 84 1013.8
20260903152116 78 252 1.0 11.0 0.00 0.52 0.27 84 1013.7
20260903151938 78 246 3.0 11.0 0.00 0.52 0.27 84 1013.8
20260903151621 77 251 2.0 11.0 0.00 0.52 0.27 84 1013.7
20260903151422 77 241 5.0 11.0 0.00 0.52 0.27 83 1013.6
20260903151120 78 235 4.0 7.0 0.00 0.52 0.27 85 1013.5
20260903150922 77 240 2.0 7.0 0.00 0.52 0.27 85 1013.5
20260903150619 77 242 2.0 7.0 0.00 0.52 0.27 85 1013.5
20260903150427 77 220 2.0 9.0 0.00 0.52 0.27 84 1013.4
20260903150125 77 220 3.0 9.0 0.00 0.52 0.27 86 1013.4
20260903145904 77 226 5.0 9.0 0.00 0.52 0.27 85 1013.4
20260903145642 77 245 3.0 8.0 0.00 0.52 0.27 87 1013.4
20260903145427 77 245 5.0 8.0 0.00 0.52 0.27 86 1013.4
20260903145124 76 250 2.0 6.0 0.00 0.52 0.27 88 1013.4
20260903144904 76 276 1.0 7.0 0.00 0.52 0.27 89 1013.4
20260903144623 76 277 2.0 7.0 0.00 0.52 0.27 89 1013.5
20260903144424 76 255 2.0 7.0 0.00 0.52 0.27 88 1013.5
20260903144128 76 2 3.0 7.0 0.00 0.52 0.27 89 1013.5
20260903143929 75 263 2.0 6.0 0.00 0.52 0.27 89 1013.5
20260903143608 75 346 2.0 5.0 0.00 0.52 0.27 91 1013.5
20260903143430 75 230 3.0 5.0 0.00 0.52 0.27 91 1013.5
20260903143106 75 248 2.0 4.0 0.00 0.52 0.27 94 1013.7
20260903142913 75 263 1.0 4.0 0.00 0.52 0.27 94 1013.6
20260903142611 74 265 2.0 4.0 0.00 0.52 0.27 95 1013.5
20260903142413 74 193 1.0 3.0 0.00 0.52 0.27 95 1013.4
20260903142110 73 193 2.0 3.0 0.00 0.52 0.27 94 1013.4
20260903141911 73 193 2.0 3.0 0.00 0.52 0.27 95 1013.4
20260903141636 73 193 1.0 4.0 0.00 0.52 0.27 96 1013.5
20260903141416 73 193 2.0 4.0 0.00 0.52 0.27 96 1013.5
20260903141120 72 192 2.0 4.0 0.00 0.52 0.27 96 1013.4
20260903140920 72 192 2.0 5.0 0.00 0.52 0.27 97 1013.4
20260903140638 72 191 2.0 5.0 0.00 0.52 0.27 96 1013.5
20260903140426 72 191 1.0 5.0 0.00 0.52 0.27 96 1013.5
20260903140122 72 192 2.0 5.0 0.00 0.52 0.27 96 1013.6
20260903135923 72 214 1.0 5.0 0.00 0.52 0.27 96 1013.7
20260903135620 72 214 3.0 5.0 0.00 0.52 0.27 97 1013.6
20260903135421 72 228 3.0 6.0 0.00 0.52 0.27 97 1013.7
20260903135118 72 236 4.0 8.0 0.00 0.52 0.27 97 1013.7
20260903134925 72 201 3.0 8.0 0.00 0.52 0.27 98 1013.6
20260903134622 71 133 4.0 8.0 0.00 0.52 0.27 97 1013.4
20260903134422 71 192 2.0 6.0 0.00 0.52 0.27 98 1013.4
20260903134121 71 194 3.0 7.0 0.00 0.52 0.27 98 1013.4
20260903133922 71 179 3.0 7.0 0.00 0.52 0.27 98 1013.5
20260903133625 71 215 4.0 6.0 0.00 0.52 0.27 98 1013.7
20260903133408 71 201 3.0 5.0 0.00 0.52 0.27 98 1013.8
20260903133123 71 225 3.0 5.0 0.00 0.52 0.27 98 1013.9
20260903132951 71 210 3.0 6.0 0.00 0.52 0.27 98 1013.9
20260903132629 71 205 2.0 6.0 0.00 0.52 0.27 99 1013.7
20260903132409 70 204 3.0 6.0 0.00 0.52 0.27 98 1013.8
20260903132108 70 223 3.0 6.0 0.00 0.52 0.27 99 1013.7
20260903131936 71 177 2.0 5.0 0.00 0.52 0.27 99 1013.6
20260903131613 71 179 2.0 5.0 0.00 0.52 0.27 99 1013.6
20260903131413 70 174 1.0 5.0 0.00 0.52 0.27 99 1013.5
20260903131135 70 203 1.0 5.0 0.00 0.52 0.27 99 1013.7
20260903130919 70 203 2.0 5.0 0.00 0.52 0.27 99 1013.6
20260903130639 70 204 2.0 3.0 0.00 0.52 0.27 99 1013.6
20260903130444 70 204 2.0 4.0 0.00 0.52 0.27 99 1013.7
20260903130118 70 204 1.0 4.0 0.00 0.52 0.27 99 1013.7
20260903125929 70 204 1.0 5.0 0.00 0.52 0.27 99 1013.5
20260903125623 70 204 2.0 5.0 0.00 0.52 0.27 99 1013.6
20260903125427 69 200 2.0 5.0 0.00 0.52 0.27 99 1013.7
20260903125119 70 194 3.0 5.0 0.00 0.52 0.27 99 1013.7
20260903124930 70 177 3.0 6.0 0.00 0.52 0.27 99 1013.7
20260903124644 69 149 0.0 2.0 0.00 0.52 0.27 99 1013.9
20260903124435 69 149 0.0 3.0 0.00 0.52 0.27 99 1013.9
20260903124108 69 149 1.0 3.0 0.00 0.52 0.27 99 1013.8
20260903123912 69 149 1.0 3.0 0.00 0.52 0.27 99 1013.7
20260903123628 69 149 3.0 3.0 0.00 0.52 0.27 99 1013.7
20260903123434 69 150 3.0 4.0 0.00 0.52 0.27 99 1013.6
20260903123112 69 151 1.0 3.0 0.00 0.52 0.27 99 1013.7
20260903122911 69 151 1.0 3.0 0.00 0.52 0.27 99 1013.7
20260903122616 69 151 1.0 4.0 0.00 0.52 0.27 99 1013.8
20260903122416 69 151 1.0 2.0 0.00 0.52 0.27 99 1013.8
20260903122115 69 151 2.0 2.0 0.00 0.52 0.27 99 1013.9
20260903121916 69 151 1.0 2.0 0.00 0.52 0.27 99 1013.9
20260903121641 69 151 0.0 1.0 0.00 0.52 0.27 99 1013.9
20260903121421 69 151 1.0 1.0 0.00 0.52 0.27 99 1013.9
20260903121119 69 151 0.0 1.0 0.00 0.52 0.27 99 1014.0
20260903120928 69 151 0.0 1.0 0.00 0.52 0.27 99 1013.9
20260903120623 68 151 0.0 1.0 0.00 0.52 0.27 99 1013.9
20260903120423 68 151 0.0 2.0 0.00 0.52 0.27 99 1013.8
20260903120122 68 151 0.0 2.0 0.00 0.52 0.27 99 1013.5
20260903115928 68 151 0.0 3.0 0.00 0.52 0.27 99 1013.6
20260903115626 68 151 1.0 3.0 0.00 0.52 0.27 99 1013.7
20260903115407 68 151 1.0 3.0 0.00 0.52 0.27 99 1013.7
20260903115105 68 150 2.0 4.0 0.00 0.52 0.27 99 1013.5
20260903114906 68 150 2.0 3.0 0.00 0.52 0.27 99 1013.7
20260903114630 68 150 1.0 2.0 0.00 0.52 0.27 99 1013.6
20260903114430 68 150 1.0 2.0 0.00 0.52 0.27 99 1013.5
20260903114108 68 150 1.0 3.0 0.00 0.52 0.27 99 1013.8
20260903113909 68 150 0.0 3.0 0.00 0.52 0.27 99 1014.2
20260903113607 68 150 2.0 3.0 0.00 0.52 0.27 99 1014.0
20260903113414 68 151 1.0 2.0 0.00 0.52 0.27 99 1013.9
20260903113134 68 151 0.0 5.0 0.00 0.52 0.27 99 1013.9
20260903112913 68 151 0.0 5.0 0.00 0.52 0.27 99 1014.0
20260903112611 68 151 2.0 5.0 0.00 0.52 0.27 99 1014.0
20260903112418 68 150 3.0 5.0 0.00 0.52 0.27 99 1014.0
20260903112116 68 191 2.0 3.0 0.00 0.52 0.27 99 1014.3
20260903111917 68 189 2.0 3.0 0.00 0.52 0.27 99 1014.3
20260903111616 68 189 1.0 3.0 0.00 0.52 0.27 99 1014.1
20260903111423 68 189 1.0 3.0 0.00 0.52 0.27 99 1013.9
20260903111121 68 189 1.0 3.0 0.00 0.52 0.27 99 1013.8
20260903110922 68 189 1.0 3.0 0.00 0.52 0.27 99 1013.7
20260903110647 68 189 1.0 2.0 0.00 0.52 0.27 99 1013.8
20260903110427 68 189 1.0 2.0 0.00 0.52 0.27 99 1013.7
20260903110106 68 189 1.0 2.0 0.00 0.52 0.27 99 1013.9
20260903105907 68 189 1.0 2.0 0.00 0.52 0.27 98 1014.0
20260903105605 68 189 0.0 1.0 0.00 0.52 0.27 98 1014.2
20260903105405 68 189 0.0 1.0 0.00 0.52 0.27 98 1014.1
20260903105131 68 189 0.0 1.0 0.00 0.52 0.27 98 1014.1
20260903104911 68 189 0.0 1.0 0.00 0.53 0.27 98 1014.1
20260903104609 68 189 0.0 2.0 0.00 0.53 0.27 98 1014.1
20260903104410 68 189 0.0 4.0 0.00 0.53 0.27 98 1014.1
20260903104135 68 189 1.0 4.0 0.00 0.53 0.27 98 1014.0
20260903103935 68 189 1.0 4.0 0.00 0.53 0.27 98 1014.0
20260903103618 68 189 1.0 2.0 0.00 0.53 0.27 99 1014.0
20260903103419 68 189 1.0 2.0 0.00 0.53 0.27 99 1014.0
20260903103117 68 189 0.0 2.0 0.00 0.53 0.27 99 1013.9
20260903102918 68 189 0.0 2.0 0.00 0.53 0.27 99 1013.9
20260903102616 68 189 1.0 2.0 0.00 0.53 0.27 99 1013.9
20260903102444 68 189 0.0 2.0 0.00 0.53 0.27 99 1014.0
20260903102117 68 189 0.0 2.0 0.00 0.53 0.27 99 1014.1
20260903101922 68 189 1.0 2.0 0.00 0.53 0.27 99 1014.1
20260903101622 68 189 0.0 2.0 0.00 0.53 0.27 98 1014.1
20260903101428 68 189 1.0 2.0 0.00 0.53 0.27 98 1014.1
20260903101130 68 189 1.0 1.0 0.00 0.53 0.27 98 1014.1
20260903100907 68 189 0.0 1.0 0.00 0.53 0.27 98 1014.1
20260903100628 68 189 0.0 1.0 0.01 0.53 0.27 98 1014.1
20260903100439 68 189 0.0 1.0 0.01 0.53 0.27 98 1014.0
20260903100112 68 189 0.0 1.0 0.01 0.53 0.27 98 1014.0
20260903095918 68 189 0.0 1.0 0.01 0.53 0.27 98 1013.9
20260903095611 68 189 0.0 1.0 0.01 0.53 0.27 98 1013.8
20260903095416 68 189 0.0 1.0 0.01 0.53 0.27 98 1013.8
20260903095110 68 189 0.0 1.0 0.01 0.53 0.27 98 1013.8
20260903094922 68 189 0.0 1.0 0.01 0.53 0.27 98 1013.6
20260903094616 68 189 1.0 2.0 0.01 0.53 0.27 98 1013.5
20260903094441 68 189 0.0 2.0 0.01 0.53 0.27 98 1013.5
20260903094120 68 189 0.0 2.0 0.01 0.53 0.27 98 1013.4
20260903093925 68 189 1.0 2.0 0.01 0.53 0.27 99 1013.5
20260903093619 68 189 1.0 3.0 0.01 0.53 0.27 98 1013.5
20260903093423 68 189 0.0 3.0 0.01 0.53 0.27 98 1013.6
20260903093118 68 189 1.0 3.0 0.01 0.53 0.27 98 1013.5
20260903092929 68 189 2.0 3.0 0.01 0.53 0.27 98 1013.4
20260903092622 68 190 1.0 2.0 0.01 0.53 0.27 99 1013.6
20260903092407 68 190 0.0 2.0 0.01 0.53 0.27 99 1013.7
20260903092121 68 190 0.0 2.0 0.01 0.53 0.27 99 1013.8
20260903091930 68 190 0.0 2.0 0.01 0.53 0.27 99 1013.6
20260903091604 68 190 0.0 3.0 0.01 0.53 0.27 99 1013.6
20260903091408 68 190 1.0 3.0 0.01 0.53 0.27 99 1013.5
20260903091121 68 190 1.0 3.0 0.01 0.53 0.27 99 1013.5
20260903090906 68 190 2.0 3.0 0.01 0.53 0.27 99 1013.6
20260903090608 68 190 1.0 3.0 0.00 0.52 0.26 99 1013.9
20260903090411 68 190 1.0 3.0 0.00 0.52 0.26 99 1013.9
20260903090106 68 190 2.0 3.0 0.01 0.52 0.26 99 1014.1
20260903085911 68 190 2.0 3.0 0.01 0.52 0.26 99 1014.3
20260903085604 68 190 0.0 2.0 0.01 0.52 0.26 98 1014.3
20260903085415 68 190 0.0 2.0 0.01 0.52 0.26 98 1014.2
20260903085109 68 190 0.0 2.0 0.01 0.52 0.26 98 1013.9
20260903084914 68 190 1.0 2.0 0.01 0.52 0.26 99 1013.9
20260903084609 68 190 1.0 1.0 0.01 0.52 0.26 98 1014.0
20260903084441 68 190 0.0 1.0 0.01 0.52 0.26 99 1014.1
20260903084114 68 191 0.0 2.0 0.01 0.52 0.26 99 1014.1
20260903083919 68 190 1.0 2.0 0.01 0.52 0.26 99 1013.9
20260903083614 68 190 1.0 3.0 0.01 0.52 0.26 99 1013.9
20260903083418 68 191 0.0 3.0 0.01 0.52 0.26 99 1013.8
20260903083118 68 190 1.0 4.0 0.01 0.52 0.26 98 1013.6
20260903082905 68 190 2.0 4.0 0.01 0.52 0.26 98 1013.3
20260903082618 68 190 2.0 4.0 0.01 0.52 0.26 98 1013.2
20260903082423 68 190 2.0 5.0 0.01 0.52 0.26 98 1013.2
20260903082117 68 183 2.0 7.0 0.01 0.52 0.26 98 1013.1
20260903081928 68 159 3.0 7.0 0.01 0.52 0.26 98 1013.0
20260903081622 68 162 2.0 10.0 0.01 0.52 0.26 98 1013.1